Year,Month,Day,Hour,Minute,Value (Times are PST for temperature in C)
2015,06,25,00,00,15.80
2015,06,25,00,01,15.80
2015,06,25,00,02,15.80
2015,06,25,00,03,15.80
2015,06,25,00,04,15.80
2015,06,25,00,05,15.80
2015,06,25,00,06,15.80
2015,06,25,00,07,15.80
2015,06,25,00,08,15.80
2015,06,25,00,09,15.80
2015,06,25,00,10,15.80
2015,06,25,00,11,15.80
2015,06,25,00,12,15.70
2015,06,25,00,13,15.70
2015,06,25,00,14,15.70
2015,06,25,00,15,15.70
2015,06,25,00,16,15.70
2015,06,25,00,17,15.70
2015,06,25,00,18,15.70
2015,06,25,00,19,15.70
2015,06,25,00,20,15.60
2015,06,25,00,21,15.60
2015,06,25,00,22,15.60
2015,06,25,00,23,15.60
2015,06,25,00,24,15.60
2015,06,25,00,25,15.60
2015,06,25,00,26,15.60
2015,06,25,00,27,15.60
2015,06,25,00,28,15.60
2015,06,25,00,29,15.60
2015,06,25,00,30,15.50
2015,06,25,00,31,15.50
2015,06,25,00,32,15.50
2015,06,25,00,33,15.50
2015,06,25,00,34,15.50
2015,06,25,00,35,15.50
2015,06,25,00,36,15.40
2015,06,25,00,37,15.40
2015,06,25,00,38,15.40
2015,06,25,00,39,15.40
2015,06,25,00,40,15.40
2015,06,25,00,41,15.40
2015,06,25,00,42,15.30
2015,06,25,00,43,15.30
2015,06,25,00,44,15.30
2015,06,25,00,45,15.30
2015,06,25,00,46,15.30
2015,06,25,00,47,15.30
2015,06,25,00,48,15.30
2015,06,25,00,49,15.30
2015,06,25,00,50,15.30
2015,06,25,00,51,15.30
2015,06,25,00,52,15.30
2015,06,25,00,53,15.30
2015,06,25,00,54,15.30
2015,06,25,00,55,15.30
2015,06,25,00,56,15.30
2015,06,25,00,57,15.30
2015,06,25,00,58,15.30
2015,06,25,00,59,15.30
2015,06,25,01,00,15.30
2015,06,25,01,01,15.30
2015,06,25,01,02,15.30
2015,06,25,01,03,15.30
2015,06,25,01,04,15.30
2015,06,25,01,05,15.30
2015,06,25,01,06,15.30
2015,06,25,01,07,15.20
2015,06,25,01,08,15.20
2015,06,25,01,09,15.20
2015,06,25,01,10,15.20
2015,06,25,01,11,15.20
2015,06,25,01,12,15.20
2015,06,25,01,13,15.20
2015,06,25,01,14,15.20
2015,06,25,01,15,15.20
2015,06,25,01,16,15.20
2015,06,25,01,17,15.20
2015,06,25,01,18,15.20
2015,06,25,01,19,15.20
2015,06,25,01,20,15.20
2015,06,25,01,21,15.10
2015,06,25,01,22,15.10
2015,06,25,01,23,15.10
2015,06,25,01,24,15.10
2015,06,25,01,25,15.10
2015,06,25,01,26,15.10
2015,06,25,01,27,15.10
2015,06,25,01,28,15.00
2015,06,25,01,29,15.00
2015,06,25,01,30,15.00
2015,06,25,01,31,15.00
2015,06,25,01,32,15.00
2015,06,25,01,33,14.90
2015,06,25,01,34,14.90
2015,06,25,01,35,14.90
2015,06,25,01,36,14.90
2015,06,25,01,37,14.90
2015,06,25,01,38,14.90
2015,06,25,01,39,14.90
2015,06,25,01,40,14.90
2015,06,25,01,41,14.80
2015,06,25,01,42,14.80
2015,06,25,01,43,14.80
2015,06,25,01,44,14.80
2015,06,25,01,45,14.80
2015,06,25,01,46,14.80
2015,06,25,01,47,14.80
2015,06,25,01,48,14.80
2015,06,25,01,49,14.80
2015,06,25,01,50,14.80
2015,06,25,01,51,14.80
2015,06,25,01,52,14.80
2015,06,25,01,53,14.80
2015,06,25,01,54,14.80
2015,06,25,01,55,14.80
2015,06,25,01,56,14.80
2015,06,25,01,57,14.80
2015,06,25,01,58,14.80
2015,06,25,01,59,14.80
2015,06,25,02,00,14.80
2015,06,25,02,01,14.80
2015,06,25,02,02,14.80
2015,06,25,02,03,14.80
2015,06,25,02,04,14.80
2015,06,25,02,05,14.80
2015,06,25,02,06,14.80
2015,06,25,02,07,14.80
2015,06,25,02,08,14.80
2015,06,25,02,09,14.70
2015,06,25,02,10,14.70
2015,06,25,02,11,14.70
2015,06,25,02,12,14.70
2015,06,25,02,13,14.70
2015,06,25,02,14,14.70
2015,06,25,02,15,14.70
2015,06,25,02,16,14.70
2015,06,25,02,17,14.60
2015,06,25,02,18,14.60
2015,06,25,02,19,14.60
2015,06,25,02,20,14.60
2015,06,25,02,21,14.60
2015,06,25,02,22,14.60
2015,06,25,02,23,14.60
2015,06,25,02,24,14.60
2015,06,25,02,25,14.60
2015,06,25,02,26,14.60
2015,06,25,02,27,14.60
2015,06,25,02,28,14.60
2015,06,25,02,29,14.60
2015,06,25,02,30,14.70
2015,06,25,02,31,14.70
2015,06,25,02,32,14.70
2015,06,25,02,33,14.70
2015,06,25,02,34,14.70
2015,06,25,02,35,14.70
2015,06,25,02,36,14.70
2015,06,25,02,37,14.70
2015,06,25,02,38,14.70
2015,06,25,02,39,14.70
2015,06,25,02,40,14.70
2015,06,25,02,41,14.60
2015,06,25,02,42,14.60
2015,06,25,02,43,14.60
2015,06,25,02,44,14.60
2015,06,25,02,45,14.60
2015,06,25,02,46,14.60
2015,06,25,02,47,14.60
2015,06,25,02,48,14.60
2015,06,25,02,49,14.60
2015,06,25,02,50,14.60
2015,06,25,02,51,14.60
2015,06,25,02,52,14.60
2015,06,25,02,53,14.50
2015,06,25,02,54,14.50
2015,06,25,02,55,14.50
2015,06,25,02,56,14.50
2015,06,25,02,57,14.50
2015,06,25,02,58,14.50
2015,06,25,02,59,14.40
2015,06,25,03,00,14.40
2015,06,25,03,01,14.40
2015,06,25,03,02,14.40
2015,06,25,03,03,14.40
2015,06,25,03,04,14.40
2015,06,25,03,05,14.40
2015,06,25,03,06,14.30
2015,06,25,03,07,14.30
2015,06,25,03,08,14.30
2015,06,25,03,09,14.30
2015,06,25,03,10,14.30
2015,06,25,03,11,14.30
2015,06,25,03,12,14.30
2015,06,25,03,13,14.30
2015,06,25,03,14,14.30
2015,06,25,03,15,14.30
2015,06,25,03,16,14.30
2015,06,25,03,17,14.30
2015,06,25,03,18,14.30
2015,06,25,03,19,14.30
2015,06,25,03,20,14.30
2015,06,25,03,21,14.20
2015,06,25,03,22,14.20
2015,06,25,03,23,14.20
2015,06,25,03,24,14.20
2015,06,25,03,25,14.20
2015,06,25,03,26,14.20
2015,06,25,03,27,14.20
2015,06,25,03,28,14.20
2015,06,25,03,29,14.20
2015,06,25,03,30,14.20
2015,06,25,03,31,14.20
2015,06,25,03,32,14.20
2015,06,25,03,33,14.20
2015,06,25,03,34,14.20
2015,06,25,03,35,14.20
2015,06,25,03,36,14.20
2015,06,25,03,37,14.20
2015,06,25,03,38,14.20
2015,06,25,03,39,14.20
2015,06,25,03,40,14.20
2015,06,25,03,41,14.20
2015,06,25,03,42,14.20
2015,06,25,03,43,14.20
2015,06,25,03,44,14.10
2015,06,25,03,45,14.10
2015,06,25,03,46,14.10
2015,06,25,03,47,14.10
2015,06,25,03,48,14.10
2015,06,25,03,49,14.10
2015,06,25,03,50,14.10
2015,06,25,03,51,14.10
2015,06,25,03,52,14.10
2015,06,25,03,53,14.10
2015,06,25,03,54,14.10
2015,06,25,03,55,14.10
2015,06,25,03,56,14.10
2015,06,25,03,57,14.00
2015,06,25,03,58,14.00
2015,06,25,03,59,14.00
2015,06,25,04,00,14.00
2015,06,25,04,01,14.00
2015,06,25,04,02,13.90
2015,06,25,04,03,13.90
2015,06,25,04,04,13.90
2015,06,25,04,05,13.90
2015,06,25,04,06,13.80
2015,06,25,04,07,13.80
2015,06,25,04,08,13.80
2015,06,25,04,09,13.80
2015,06,25,04,10,13.80
2015,06,25,04,11,13.80
2015,06,25,04,12,13.80
2015,06,25,04,13,13.80
2015,06,25,04,14,13.80
2015,06,25,04,15,13.80
2015,06,25,04,16,13.80
2015,06,25,04,17,13.80
2015,06,25,04,18,13.80
2015,06,25,04,19,13.80
2015,06,25,04,20,13.80
2015,06,25,04,21,13.80
2015,06,25,04,22,13.80
2015,06,25,04,23,13.80
2015,06,25,04,24,13.80
2015,06,25,04,25,13.80
2015,06,25,04,26,13.80
2015,06,25,04,27,13.80
2015,06,25,04,28,13.80
2015,06,25,04,29,13.80
2015,06,25,04,30,13.80
2015,06,25,04,31,13.80
2015,06,25,04,32,13.80
2015,06,25,04,33,13.80
2015,06,25,04,34,13.80
2015,06,25,04,35,13.80
2015,06,25,04,36,13.80
2015,06,25,04,37,13.80
2015,06,25,04,38,13.80
2015,06,25,04,39,13.80
2015,06,25,04,40,13.80
2015,06,25,04,41,13.80
2015,06,25,04,42,13.80
2015,06,25,04,43,13.80
2015,06,25,04,44,13.80
2015,06,25,04,45,13.80
2015,06,25,04,46,13.80
2015,06,25,04,47,13.80
2015,06,25,04,48,13.80
2015,06,25,04,49,13.80
2015,06,25,04,50,13.70
2015,06,25,04,51,13.70
2015,06,25,04,52,13.70
2015,06,25,04,53,13.70
2015,06,25,04,54,13.70
2015,06,25,04,55,13.80
2015,06,25,04,56,13.80
2015,06,25,04,57,13.80
2015,06,25,04,58,13.80
2015,06,25,04,59,13.80
2015,06,25,05,00,13.80
2015,06,25,05,01,13.80
2015,06,25,05,02,13.80
2015,06,25,05,03,13.80
2015,06,25,05,04,13.80
2015,06,25,05,05,13.80
2015,06,25,05,06,13.80
2015,06,25,05,07,13.80
2015,06,25,05,08,13.80
2015,06,25,05,09,13.80
2015,06,25,05,10,13.80
2015,06,25,05,11,13.80
2015,06,25,05,12,13.80
2015,06,25,05,13,13.80
2015,06,25,05,14,13.80
2015,06,25,05,15,13.80
2015,06,25,05,16,13.80
2015,06,25,05,17,13.80
2015,06,25,05,18,13.80
2015,06,25,05,19,13.80
2015,06,25,05,20,13.80
2015,06,25,05,21,13.80
2015,06,25,05,22,13.80
2015,06,25,05,23,13.80
2015,06,25,05,24,13.70
2015,06,25,05,25,13.70
2015,06,25,05,26,13.70
2015,06,25,05,27,13.70
2015,06,25,05,28,13.70
2015,06,25,05,29,13.70
2015,06,25,05,30,13.70
2015,06,25,05,31,13.60
2015,06,25,05,32,13.60
2015,06,25,05,33,13.60
2015,06,25,05,34,13.60
2015,06,25,05,35,13.60
2015,06,25,05,36,13.60
2015,06,25,05,37,13.60
2015,06,25,05,38,13.50
2015,06,25,05,39,13.50
2015,06,25,05,40,13.50
2015,06,25,05,41,13.50
2015,06,25,05,42,13.50
2015,06,25,05,43,13.50
2015,06,25,05,44,13.50
2015,06,25,05,45,13.40
2015,06,25,05,46,13.40
2015,06,25,05,47,13.40
2015,06,25,05,48,13.40
2015,06,25,05,49,13.50
2015,06,25,05,50,13.40
2015,06,25,05,51,13.50
2015,06,25,05,52,13.50
2015,06,25,05,53,13.40
2015,06,25,05,54,13.40
2015,06,25,05,55,13.40
2015,06,25,05,56,13.40
2015,06,25,05,57,13.50
2015,06,25,05,58,13.50
2015,06,25,05,59,13.40
2015,06,25,06,00,13.40
2015,06,25,06,01,13.40
2015,06,25,06,02,13.40
2015,06,25,06,03,13.50
2015,06,25,06,04,13.50
2015,06,25,06,05,13.50
2015,06,25,06,06,13.50
2015,06,25,06,07,13.50
2015,06,25,06,08,13.50
2015,06,25,06,09,13.50
2015,06,25,06,10,13.50
2015,06,25,06,11,13.50
2015,06,25,06,12,13.50
2015,06,25,06,13,13.50
2015,06,25,06,14,13.50
2015,06,25,06,15,13.50
2015,06,25,06,16,13.50
2015,06,25,06,17,13.50
2015,06,25,06,18,13.60
2015,06,25,06,19,13.50
2015,06,25,06,20,13.60
2015,06,25,06,21,13.60
2015,06,25,06,22,13.60
2015,06,25,06,23,13.60
2015,06,25,06,24,13.60
2015,06,25,06,25,13.60
2015,06,25,06,26,13.60
2015,06,25,06,27,13.60
2015,06,25,06,28,13.60
2015,06,25,06,29,13.60
2015,06,25,06,30,13.60
2015,06,25,06,31,13.60
2015,06,25,06,32,13.60
2015,06,25,06,33,13.70
2015,06,25,06,34,13.70
2015,06,25,06,35,13.80
2015,06,25,06,36,13.90
2015,06,25,06,37,14.00
2015,06,25,06,38,14.00
2015,06,25,06,39,14.20
2015,06,25,06,40,14.30
2015,06,25,06,41,14.40
2015,06,25,06,42,14.50
2015,06,25,06,43,14.60
2015,06,25,06,44,14.70
2015,06,25,06,45,14.80
2015,06,25,06,46,14.90
2015,06,25,06,47,15.00
2015,06,25,06,48,15.10
2015,06,25,06,49,15.20
2015,06,25,06,50,15.30
2015,06,25,06,51,15.40
2015,06,25,06,52,15.50
2015,06,25,06,53,15.60
2015,06,25,06,54,15.70
2015,06,25,06,55,15.80
2015,06,25,06,56,16.00
2015,06,25,06,57,16.10
2015,06,25,06,58,16.20
2015,06,25,06,59,16.30
2015,06,25,07,00,16.40
2015,06,25,07,01,16.40
2015,06,25,07,02,16.50
2015,06,25,07,03,16.60
2015,06,25,07,04,16.70
2015,06,25,07,05,16.80
2015,06,25,07,06,16.80
2015,06,25,07,07,16.90
2015,06,25,07,08,17.00
2015,06,25,07,09,17.10
2015,06,25,07,10,17.10
2015,06,25,07,11,17.20
2015,06,25,07,12,17.20
2015,06,25,07,13,17.30
2015,06,25,07,14,17.40
2015,06,25,07,15,17.40
2015,06,25,07,16,17.50
2015,06,25,07,17,17.60
2015,06,25,07,18,17.70
2015,06,25,07,19,17.80
2015,06,25,07,20,17.90
2015,06,25,07,21,18.00
2015,06,25,07,22,18.10
2015,06,25,07,23,18.20
2015,06,25,07,24,18.30
2015,06,25,07,25,18.40
2015,06,25,07,26,18.40
2015,06,25,07,27,18.40
2015,06,25,07,28,18.50
2015,06,25,07,29,18.60
2015,06,25,07,30,18.60
2015,06,25,07,31,18.60
2015,06,25,07,32,18.70
2015,06,25,07,33,18.70
2015,06,25,07,34,18.80
2015,06,25,07,35,18.80
2015,06,25,07,36,18.90
2015,06,25,07,37,18.90
2015,06,25,07,38,19.00
2015,06,25,07,39,19.10
2015,06,25,07,40,19.30
2015,06,25,07,41,19.40
2015,06,25,07,42,19.50
2015,06,25,07,43,19.60
2015,06,25,07,44,19.60
2015,06,25,07,45,19.60
2015,06,25,07,46,19.50
2015,06,25,07,47,19.40
2015,06,25,07,48,19.40
2015,06,25,07,49,19.50
2015,06,25,07,50,19.60
2015,06,25,07,51,19.60
2015,06,25,07,52,19.70
2015,06,25,07,53,19.80
2015,06,25,07,54,19.80
2015,06,25,07,55,19.80
2015,06,25,07,56,19.80
2015,06,25,07,57,19.90
2015,06,25,07,58,20.00
2015,06,25,07,59,20.10
2015,06,25,08,00,20.20
2015,06,25,08,01,20.20
2015,06,25,08,02,20.30
2015,06,25,08,03,20.40
2015,06,25,08,04,20.40
2015,06,25,08,05,20.40
2015,06,25,08,06,20.40
2015,06,25,08,07,20.40
2015,06,25,08,08,20.40
2015,06,25,08,09,20.40
2015,06,25,08,10,20.40
2015,06,25,08,11,20.40
2015,06,25,08,12,20.50
2015,06,25,08,13,20.50
2015,06,25,08,14,20.50
2015,06,25,08,15,20.50
2015,06,25,08,16,20.40
2015,06,25,08,17,20.40
2015,06,25,08,18,20.40
2015,06,25,08,19,20.50
2015,06,25,08,20,20.50
2015,06,25,08,21,20.60
2015,06,25,08,22,20.60
2015,06,25,08,23,20.70
2015,06,25,08,24,20.70
2015,06,25,08,25,20.70
2015,06,25,08,26,20.70
2015,06,25,08,27,20.80
2015,06,25,08,28,20.80
2015,06,25,08,29,20.90
2015,06,25,08,30,21.00
2015,06,25,08,31,21.10
2015,06,25,08,32,21.10
2015,06,25,08,33,21.00
2015,06,25,08,34,20.90
2015,06,25,08,35,20.90
2015,06,25,08,36,20.90
2015,06,25,08,37,20.90
2015,06,25,08,38,21.00
2015,06,25,08,39,21.10
2015,06,25,08,40,21.10
2015,06,25,08,41,21.20
2015,06,25,08,42,21.40
2015,06,25,08,43,21.50
2015,06,25,08,44,21.60
2015,06,25,08,45,21.60
2015,06,25,08,46,21.70
2015,06,25,08,47,21.70
2015,06,25,08,48,21.60
2015,06,25,08,49,21.50
2015,06,25,08,50,21.50
2015,06,25,08,51,21.60
2015,06,25,08,52,21.60
2015,06,25,08,53,21.70
2015,06,25,08,54,21.80
2015,06,25,08,55,21.80
2015,06,25,08,56,21.90
2015,06,25,08,57,21.90
2015,06,25,08,58,21.90
2015,06,25,08,59,22.00
2015,06,25,09,00,22.10
2015,06,25,09,01,22.20
2015,06,25,09,02,22.30
2015,06,25,09,03,22.40
2015,06,25,09,04,22.50
2015,06,25,09,05,22.60
2015,06,25,09,06,22.70
2015,06,25,09,07,22.70
2015,06,25,09,08,22.60
2015,06,25,09,09,22.50
2015,06,25,09,10,22.40
2015,06,25,09,11,22.40
2015,06,25,09,12,22.40
2015,06,25,09,13,22.40
2015,06,25,09,14,22.40
2015,06,25,09,15,22.30
2015,06,25,09,16,22.20
2015,06,25,09,17,22.20
2015,06,25,09,18,22.30
2015,06,25,09,19,22.30
2015,06,25,09,20,22.30
2015,06,25,09,21,22.30
2015,06,25,09,22,22.20
2015,06,25,09,23,22.20
2015,06,25,09,24,22.20
2015,06,25,09,25,22.20
2015,06,25,09,26,22.30
2015,06,25,09,27,22.30
2015,06,25,09,28,22.30
2015,06,25,09,29,22.40
2015,06,25,09,30,22.40
2015,06,25,09,31,22.50
2015,06,25,09,32,22.50
2015,06,25,09,33,22.40
2015,06,25,09,34,22.40
2015,06,25,09,35,22.40
2015,06,25,09,36,22.50
2015,06,25,09,37,22.40
2015,06,25,09,38,22.40
2015,06,25,09,39,22.40
2015,06,25,09,40,22.40
2015,06,25,09,41,22.40
2015,06,25,09,42,22.40
2015,06,25,09,43,22.40
2015,06,25,09,44,22.40
2015,06,25,09,45,22.50
2015,06,25,09,46,22.60
2015,06,25,09,47,22.50
2015,06,25,09,48,22.40
2015,06,25,09,49,22.40
2015,06,25,09,50,22.40
2015,06,25,09,51,22.50
2015,06,25,09,52,22.60
2015,06,25,09,53,22.60
2015,06,25,09,54,22.70
2015,06,25,09,55,22.70
2015,06,25,09,56,22.70
2015,06,25,09,57,22.70
2015,06,25,09,58,22.70
2015,06,25,09,59,22.60
2015,06,25,10,00,22.60
2015,06,25,10,01,22.60
2015,06,25,10,02,22.60
2015,06,25,10,03,22.60
2015,06,25,10,04,22.60
2015,06,25,10,05,22.70
2015,06,25,10,06,22.70
2015,06,25,10,07,22.80
2015,06,25,10,08,22.90
2015,06,25,10,09,22.90
2015,06,25,10,10,22.90
2015,06,25,10,11,22.90
2015,06,25,10,12,22.90
2015,06,25,10,13,22.90
2015,06,25,10,14,22.90
2015,06,25,10,15,22.90
2015,06,25,10,16,22.80
2015,06,25,10,17,22.80
2015,06,25,10,18,22.70
2015,06,25,10,19,22.60
2015,06,25,10,20,22.50
2015,06,25,10,21,22.50
2015,06,25,10,22,22.60
2015,06,25,10,23,22.70
2015,06,25,10,24,22.70
2015,06,25,10,25,22.70
2015,06,25,10,26,22.70
2015,06,25,10,27,22.60
2015,06,25,10,28,22.60
2015,06,25,10,29,22.50
2015,06,25,10,30,22.50
2015,06,25,10,31,22.50
2015,06,25,10,32,22.60
2015,06,25,10,33,22.70
2015,06,25,10,34,22.70
2015,06,25,10,35,22.70
2015,06,25,10,36,22.70
2015,06,25,10,37,22.80
2015,06,25,10,38,22.80
2015,06,25,10,39,22.80
2015,06,25,10,40,22.70
2015,06,25,10,41,22.80
2015,06,25,10,42,22.90
2015,06,25,10,43,22.90
2015,06,25,10,44,22.90
2015,06,25,10,45,22.90
2015,06,25,10,46,23.00
2015,06,25,10,47,23.10
2015,06,25,10,48,23.30
2015,06,25,10,49,23.40
2015,06,25,10,50,23.40
2015,06,25,10,51,23.30
2015,06,25,10,52,23.30
2015,06,25,10,53,23.20
2015,06,25,10,54,23.10
2015,06,25,10,55,23.10
2015,06,25,10,56,23.10
2015,06,25,10,57,23.20
2015,06,25,10,58,23.30
2015,06,25,10,59,23.30
2015,06,25,11,00,23.40
2015,06,25,11,01,23.50
2015,06,25,11,02,23.60
2015,06,25,11,03,23.80
2015,06,25,11,04,23.90
2015,06,25,11,05,24.10
2015,06,25,11,06,24.20
2015,06,25,11,07,24.30
2015,06,25,11,08,24.30
2015,06,25,11,09,24.30
2015,06,25,11,10,24.30
2015,06,25,11,11,24.30
2015,06,25,11,12,24.30
2015,06,25,11,13,24.30
2015,06,25,11,14,24.30
2015,06,25,11,15,24.20
2015,06,25,11,16,24.00
2015,06,25,11,17,23.90
2015,06,25,11,18,23.80
2015,06,25,11,19,23.70
2015,06,25,11,20,23.80
2015,06,25,11,21,23.80
2015,06,25,11,22,23.90
2015,06,25,11,23,24.00
2015,06,25,11,24,24.10
2015,06,25,11,25,24.20
2015,06,25,11,26,24.10
2015,06,25,11,27,24.00
2015,06,25,11,28,24.00
2015,06,25,11,29,24.00
2015,06,25,11,30,23.90
2015,06,25,11,31,23.90
2015,06,25,11,32,23.90
2015,06,25,11,33,23.90
2015,06,25,11,34,23.90
2015,06,25,11,35,23.90
2015,06,25,11,36,23.80
2015,06,25,11,37,23.70
2015,06,25,11,38,23.80
2015,06,25,11,39,23.80
2015,06,25,11,40,23.80
2015,06,25,11,41,23.80
2015,06,25,11,42,23.90
2015,06,25,11,43,24.00
2015,06,25,11,44,24.10
2015,06,25,11,45,24.10
2015,06,25,11,46,24.10
2015,06,25,11,47,24.10
2015,06,25,11,48,24.10
2015,06,25,11,49,24.20
2015,06,25,11,50,24.30
2015,06,25,11,51,24.50
2015,06,25,11,52,24.60
2015,06,25,11,53,24.60
2015,06,25,11,54,24.40
2015,06,25,11,55,24.40
2015,06,25,11,56,24.40
2015,06,25,11,57,24.50
2015,06,25,11,58,24.70
2015,06,25,11,59,24.70
2015,06,25,12,00,24.70
2015,06,25,12,01,24.70
2015,06,25,12,02,24.50
2015,06,25,12,03,24.30
2015,06,25,12,04,24.30
2015,06,25,12,05,24.30
2015,06,25,12,06,24.40
2015,06,25,12,07,24.30
2015,06,25,12,08,24.40
2015,06,25,12,09,24.40
2015,06,25,12,10,24.50
2015,06,25,12,11,24.40
2015,06,25,12,12,24.50
2015,06,25,12,13,24.70
2015,06,25,12,14,24.70
2015,06,25,12,15,24.70
2015,06,25,12,16,24.70
2015,06,25,12,17,24.70
2015,06,25,12,18,24.60
2015,06,25,12,19,24.50
2015,06,25,12,20,24.50
2015,06,25,12,21,24.50
2015,06,25,12,22,24.60
2015,06,25,12,23,24.80
2015,06,25,12,24,24.90
2015,06,25,12,25,25.00
2015,06,25,12,26,24.90
2015,06,25,12,27,25.00
2015,06,25,12,28,25.10
2015,06,25,12,29,25.20
2015,06,25,12,30,25.30
2015,06,25,12,31,25.30
2015,06,25,12,32,25.30
2015,06,25,12,33,25.30
2015,06,25,12,34,25.30
2015,06,25,12,35,25.30
2015,06,25,12,36,25.20
2015,06,25,12,37,25.10
2015,06,25,12,38,25.10
2015,06,25,12,39,25.10
2015,06,25,12,40,25.10
2015,06,25,12,41,25.10
2015,06,25,12,42,25.10
2015,06,25,12,43,25.10
2015,06,25,12,44,25.20
2015,06,25,12,45,25.30
2015,06,25,12,46,25.40
2015,06,25,12,47,25.60
2015,06,25,12,48,25.60
2015,06,25,12,49,25.60
2015,06,25,12,50,25.60
2015,06,25,12,51,25.80
2015,06,25,12,52,25.80
2015,06,25,12,53,25.90
2015,06,25,12,54,26.00
2015,06,25,12,55,26.00
2015,06,25,12,56,26.10
2015,06,25,12,57,26.00
2015,06,25,12,58,26.00
2015,06,25,12,59,25.90
2015,06,25,13,00,25.80
2015,06,25,13,01,25.80
2015,06,25,13,02,25.80
2015,06,25,13,03,25.70
2015,06,25,13,04,25.70
2015,06,25,13,05,25.70
2015,06,25,13,06,25.70
2015,06,25,13,07,25.80
2015,06,25,13,08,25.80
2015,06,25,13,09,25.70
2015,06,25,13,10,25.60
2015,06,25,13,11,25.70
2015,06,25,13,12,25.70
2015,06,25,13,13,25.70
2015,06,25,13,14,25.70
2015,06,25,13,15,25.80
2015,06,25,13,16,25.80
2015,06,25,13,17,25.90
2015,06,25,13,18,25.90
2015,06,25,13,19,26.00
2015,06,25,13,20,26.00
2015,06,25,13,21,26.00
2015,06,25,13,22,26.00
2015,06,25,13,23,25.90
2015,06,25,13,24,25.90
2015,06,25,13,25,25.90
2015,06,25,13,26,25.90
2015,06,25,13,27,25.90
2015,06,25,13,28,26.10
2015,06,25,13,29,26.10
2015,06,25,13,30,26.00
2015,06,25,13,31,25.90
2015,06,25,13,32,25.90
2015,06,25,13,33,25.80
2015,06,25,13,34,25.90
2015,06,25,13,35,26.00
2015,06,25,13,36,26.20
2015,06,25,13,37,26.20
2015,06,25,13,38,26.10
2015,06,25,13,39,25.90
2015,06,25,13,40,25.80
2015,06,25,13,41,25.80
2015,06,25,13,42,25.80
2015,06,25,13,43,25.80
2015,06,25,13,44,25.90
2015,06,25,13,45,25.90
2015,06,25,13,46,26.00
2015,06,25,13,47,26.20
2015,06,25,13,48,26.30
2015,06,25,13,49,26.40
2015,06,25,13,50,26.40
2015,06,25,13,51,26.50
2015,06,25,13,52,26.40
2015,06,25,13,53,26.30
2015,06,25,13,54,26.30
2015,06,25,13,55,26.30
2015,06,25,13,56,26.30
2015,06,25,13,57,26.20
2015,06,25,13,58,26.30
2015,06,25,13,59,26.40
2015,06,25,14,00,26.40
2015,06,25,14,01,26.40
2015,06,25,14,02,26.40
2015,06,25,14,03,26.40
2015,06,25,14,04,26.40
2015,06,25,14,05,26.40
2015,06,25,14,06,26.40
2015,06,25,14,07,26.40
2015,06,25,14,08,26.50
2015,06,25,14,09,26.40
2015,06,25,14,10,26.40
2015,06,25,14,11,26.50
2015,06,25,14,12,26.50
2015,06,25,14,13,26.40
2015,06,25,14,14,26.30
2015,06,25,14,15,26.20
2015,06,25,14,16,26.10
2015,06,25,14,17,26.10
2015,06,25,14,18,26.30
2015,06,25,14,19,26.30
2015,06,25,14,20,26.40
2015,06,25,14,21,26.40
2015,06,25,14,22,26.20
2015,06,25,14,23,26.20
2015,06,25,14,24,26.10
2015,06,25,14,25,26.00
2015,06,25,14,26,25.90
2015,06,25,14,27,25.90
2015,06,25,14,28,25.90
2015,06,25,14,29,25.90
2015,06,25,14,30,25.90
2015,06,25,14,31,25.80
2015,06,25,14,32,25.80
2015,06,25,14,33,25.70
2015,06,25,14,34,25.70
2015,06,25,14,35,25.60
2015,06,25,14,36,25.50
2015,06,25,14,37,25.40
2015,06,25,14,38,25.40
2015,06,25,14,39,25.30
2015,06,25,14,40,25.40
2015,06,25,14,41,25.40
2015,06,25,14,42,25.40
2015,06,25,14,43,25.40
2015,06,25,14,44,25.40
2015,06,25,14,45,25.40
2015,06,25,14,46,25.50
2015,06,25,14,47,25.60
2015,06,25,14,48,25.70
2015,06,25,14,49,25.80
2015,06,25,14,50,25.80
2015,06,25,14,51,25.80
2015,06,25,14,52,25.90
2015,06,25,14,53,26.00
2015,06,25,14,54,26.00
2015,06,25,14,55,26.10
2015,06,25,14,56,26.10
2015,06,25,14,57,26.20
2015,06,25,14,58,26.30
2015,06,25,14,59,26.30
2015,06,25,15,00,26.30
2015,06,25,15,01,26.40
2015,06,25,15,02,26.50
2015,06,25,15,03,26.50
2015,06,25,15,04,26.60
2015,06,25,15,05,26.70
2015,06,25,15,06,26.80
2015,06,25,15,07,26.80
2015,06,25,15,08,26.80
2015,06,25,15,09,26.80
2015,06,25,15,10,26.90
2015,06,25,15,11,27.00
2015,06,25,15,12,27.10
2015,06,25,15,13,27.10
2015,06,25,15,14,27.20
2015,06,25,15,15,27.20
2015,06,25,15,16,27.20
2015,06,25,15,17,27.20
2015,06,25,15,18,27.20
2015,06,25,15,19,27.30
2015,06,25,15,20,27.40
2015,06,25,15,21,27.50
2015,06,25,15,22,27.50
2015,06,25,15,23,27.60
2015,06,25,15,24,27.50
2015,06,25,15,25,27.50
2015,06,25,15,26,27.60
2015,06,25,15,27,27.80
2015,06,25,15,28,27.90
2015,06,25,15,29,28.00
2015,06,25,15,30,28.10
2015,06,25,15,31,28.20
2015,06,25,15,32,28.40
2015,06,25,15,33,28.50
2015,06,25,15,34,28.60
2015,06,25,15,35,28.70
2015,06,25,15,36,28.80
2015,06,25,15,37,28.80
2015,06,25,15,38,28.60
2015,06,25,15,39,28.40
2015,06,25,15,40,28.30
2015,06,25,15,41,28.30
2015,06,25,15,42,28.30
2015,06,25,15,43,28.40
2015,06,25,15,44,28.40
2015,06,25,15,45,28.50
2015,06,25,15,46,28.70
2015,06,25,15,47,28.70
2015,06,25,15,48,28.80
2015,06,25,15,49,28.90
2015,06,25,15,50,28.80
2015,06,25,15,51,28.70
2015,06,25,15,52,28.60
2015,06,25,15,53,28.60
2015,06,25,15,54,28.50
2015,06,25,15,55,28.40
2015,06,25,15,56,28.40
2015,06,25,15,57,28.40
2015,06,25,15,58,28.40
2015,06,25,15,59,28.40
2015,06,25,16,00,28.40
2015,06,25,16,01,28.40
2015,06,25,16,02,28.40
2015,06,25,16,03,28.50
2015,06,25,16,04,28.60
2015,06,25,16,05,28.60
2015,06,25,16,06,28.60
2015,06,25,16,07,28.60
2015,06,25,16,08,28.60
2015,06,25,16,09,28.60
2015,06,25,16,10,28.60
2015,06,25,16,11,28.60
2015,06,25,16,12,28.60
2015,06,25,16,13,28.70
2015,06,25,16,14,28.70
2015,06,25,16,15,28.70
2015,06,25,16,16,28.70
2015,06,25,16,17,28.70
2015,06,25,16,18,28.70
2015,06,25,16,19,28.70
2015,06,25,16,20,28.70
2015,06,25,16,21,28.60
2015,06,25,16,22,28.60
2015,06,25,16,23,28.70
2015,06,25,16,24,28.80
2015,06,25,16,25,28.90
2015,06,25,16,26,29.00
2015,06,25,16,27,29.10
2015,06,25,16,28,29.10
2015,06,25,16,29,29.10
2015,06,25,16,30,29.00
2015,06,25,16,31,28.90
2015,06,25,16,32,28.80
2015,06,25,16,33,28.80
2015,06,25,16,34,28.80
2015,06,25,16,35,28.80
2015,06,25,16,36,28.80
2015,06,25,16,37,28.80
2015,06,25,16,38,28.90
2015,06,25,16,39,29.10
2015,06,25,16,40,29.20
2015,06,25,16,41,29.30
2015,06,25,16,42,29.30
2015,06,25,16,43,29.40
2015,06,25,16,44,29.50
2015,06,25,16,45,29.60
2015,06,25,16,46,29.60
2015,06,25,16,47,29.60
2015,06,25,16,48,29.60
2015,06,25,16,49,29.50
2015,06,25,16,50,29.50
2015,06,25,16,51,29.60
2015,06,25,16,52,29.60
2015,06,25,16,53,29.70
2015,06,25,16,54,29.70
2015,06,25,16,55,29.80
2015,06,25,16,56,29.80
2015,06,25,16,57,29.70
2015,06,25,16,58,29.50
2015,06,25,16,59,29.30
2015,06,25,17,00,29.30
2015,06,25,17,01,29.10
2015,06,25,17,02,28.90
2015,06,25,17,03,28.70
2015,06,25,17,04,28.50
2015,06,25,17,05,28.50
2015,06,25,17,06,28.30
2015,06,25,17,07,28.40
2015,06,25,17,08,28.30
2015,06,25,17,09,28.30
2015,06,25,17,10,28.20
2015,06,25,17,11,28.20
2015,06,25,17,12,28.20
2015,06,25,17,13,28.30
2015,06,25,17,14,28.30
2015,06,25,17,15,28.30
2015,06,25,17,16,28.20
2015,06,25,17,17,28.10
2015,06,25,17,18,28.00
2015,06,25,17,19,27.80